Location: Potomac
(46.8816°N, 113.5795°W)
Time: 07:15:11
(UTC+00:00)

NANOSAT C BR1 - Pass Details

Date: 30 June 2022
Orbit: 584 x 599 km, 98.0° (Epoch: 09 August)

Event Time Altitude Azimuth Distance (km) Brightness Sun altitude
Rises 10:40:25 0° 3° (N) 2,848 ? -8.8°
Reaches altitude 10° 10:42:49 10° 352° (N) 1,944 ? -8.5°
Maximum altitude 10:46:23 28° 294° (WNW) 1,147 ? -8.1°
Drops below altitude 10° 10:49:58 10° 235° (SW) 1,937 ? -7.7°
Enters shadow 10:50:07 - 234° (SW) 1,993 ? -7.7°
